{"data":{"norad_id":55314,"intl_designator":"2023-010AX","name":"STARLINK-5305","alt_names":[],"object_type":"PAYLOAD","status":"ACTIVE","operator":null,"country":"US","launch_date":"2023-01-19","launch_site_code":"AFWTR","launch_vehicle":null,"mission":null,"orbit_class":"UNKNOWN","rcs_meters":null,"size_class":null,"mass_kg":null,"dimensions":null,"purposes":["comms"],"wikipedia_slug":null,"has_3d_model":false,"image_url":null,"decayed_at":null,"tle_current":{"epoch":"2026-09-20T22:00:03.000096Z","epoch_age_seconds":60678,"freshness":"FRESH","line1":"1 55314U 23010AX  26263.91670139  .00050803  00000+0  29912-2 0  9999","line2":"2 55314  70.0002 232.0414 0003420 257.5540 323.7349 15.11346627  5778","mean_motion":15.11346627,"eccentricity":0.000342,"inclination_deg":70.0002,"raan_deg":232.0414,"arg_perigee_deg":257.554,"mean_anomaly_deg":323.7349,"bstar":0.0029912,"rev_number":577,"period_min":95.27926779169,"perigee_km":529.72892600722,"apogee_km":534.45552279671,"semimajor_km":6910.229224402,"source":"CELESTRAK","updated_at":"2026-09-21T09:00:33.175280Z"}}}